Regional Weather Roundup
Issued by NWS Sioux Falls, SD

Home | Current Version | Previous Version | Text Only | Print | Product List | Glossary On
Versions: 1 2 3 4 5 6 7 8 9 10 11 12 13 14 15 16 17 18 19 20 21 22 23 24 25 26 27 28 29 30 31 32 33 34 35 36 37 38 39 40 41 42 43 44 45 46 47 48 49 50
000
ASUS43 KFSD 010810
RWRFSD

WEATHER ROUNDUP FOR SE SOUTH DAKOTA/SW MINNESOTA/NW IOWA
NATIONAL WEATHER SERVICE SIOUX FALLS SD
200 AM CST SUN FEB 01 2015

NOTE: "FAIR" INDICATES FEW OR NO CLOUDS BELOW 12,000 FEET WITH NO
SIGNIFICANT WEATHER AND OR OBSTRUCTIONS TO VISIBILITY.


SDZ038>040-050-052>070-010900-
SOUTHEAST SOUTH DAKOTA

CITY           SKY/WX    TMP DP  RH WIND       PRES   REMARKS
CHAMBERLAIN    LGT SNOW   6   2  84 N17       30.19S WCI -13
HURON          LGT SNOW   6   1  80 N23G30    30.23S WCI -15
MADISON        LGT SNOW  14  14 100 NE24G32   30.08S WCI  -5
MITCHELL       LGT SNOW  13   9  84 N24G31    30.17R FOG     WCI  -7
SIOUX FALLS    LGT SNOW  20  16  84 NE21      30.04F FOG     WCI   4
WINNER         LGT SNOW   9   4  80 N15       30.18R VSB 1   WCI  -8
YANKTON        CLOUDY    25  19  80 N20       30.03S WCI  11
$$

MNZ071-072-080-081-089-090-097-098-010900-
SOUTHWEST MINNESOTA

CITY           SKY/WX    TMP DP  RH WIND       PRES   REMARKS
FAIRMONT       CLOUDY    23  18  80 NE23      30.02F WCI   7
JACKSON        LGT SNOW  23  19  86 NE24      30.02F WCI   7
LUVERNE        LGT SNOW  23  19  86 NE24G31   30.02F WCI   7
MARSHALL       CLOUDY    19   9  63 NE22G29   30.16S WCI   3
MONTEVIDEO     CLOUDY    16  10  79 E16G26    30.22F HAZE    WCI   0
PIPESTONE      LGT SNOW  18  16  93 NE15      30.06R WCI   3
REDWOOD FALLS  LGT SNOW  20  12  71 NE16G26   30.16S WCI   6
TRACY          LGT SNOW  20  16  81 NE21G28   30.12R WCI   5
WINDOM         LGT SNOW  21  19  93 N22       30.06S WCI   5
WORTHINGTON    CLOUDY    27  18  69 NE24      30.03S WCI  12
$$

IAZ001>003-012>014-020>022-031-032-NEZ013-014-SDZ071-010900-
NORTHWEST IOWA

CITY           SKY/WX    TMP DP  RH WIND       PRES   REMARKS
CHEROKEE       LGT SNOW  25  25  97 NE16G26   29.93F WCI  13
DENISON        LGT SNOW  32  32 100 NE9       29.84F VSB 1   WCI  24
ESTHERVILLE    LGT SNOW  22  20  92 NE23      29.99F FOG     WCI   6
LE MARS        MIX PCPN  25  25 100 NE20G28   29.96R VSB 1   WCI  11
ORANGE CITY    LGT SNOW  25  21  86 NE14G21   29.95F WCI  13
SHELDON        MIX PCPN  23  23 100 NE25G37   29.95F WCI   7
SIOUX CITY     LGT SNOW  27  24  89 NE20G26   29.92F VSB 1   WCI  13
SPENCER        LGT SNOW  24  20  84 NE25      29.97F FOG     WCI   8
STORM LAKE     LGT SNOW  25  25 100 NE24      29.90F VSB 3/4 WCI   9
$$

ABBREVIATIONS USED IN REMARKS
   TC - TEMPERATURE IN CELSIUS
  WCI - WIND CHILL INDEX
   HX - HEAT INDEX
  VSB - VISIBILITY



USA.gov is the U.S. government's official web portal to all federal, state and local government web resources and services.